Location: Bli��� Lhota
(48.7570°N, 14.0120°E)
Time: 09:24:05
(UTC+00:00)

USA 234 - Pass Details

Date: 18 September 2020
Orbit: 1102 x 1106 km, 123.0° (Epoch: 16 October)

Event Time Altitude Azimuth Distance (km) Brightness Sun altitude
Rises 18:32:37 0° 56° (ENE) 3,927 5.8 -14.2°
Reaches altitude 10° 18:35:19 10° 65° (ENE) 2,967 5.1 -14.6°
Maximum altitude 18:41:21 38° 132° (SE) 1,613 3.7 -15.6°
Drops below altitude 10° 18:47:22 10° 199° (SSW) 2,956 5.5 -16.5°
Sets 18:50:02 0° 207° (SSW) 3,911 6.2 -16.9°
